Location: U-46 Planetarium
(42.0300°N, 88.2740°W)
Time: 08:33:45
(UTC-05:00)

Daily predictions for brighter satellites

Satellite Brightness Start Highest point End
(mag) Time Altitude Azimuth Time Altitude Azimuth Time Altitude Azimuth
Cosmos 1869 3.7 20:15:03 10° SSW 20:18:57 70° W 20:22:56 10° N
USA 229 DEB 4.2 20:13:36 10° S 20:19:45 37° ESE 20:26:00 10° NE
USA 229 4.2 20:13:44 10° S 20:19:53 37° ESE 20:26:06 10° NE
Cosmos 2322 4.2 20:17:21 10° S 20:22:32 37° ESE 20:27:42 10° NE
Cosmos 1634 Rocket 4.2 20:18:12 10° S 20:24:30 80° W 20:30:53 10° N
SL-16 R/B 2.6 20:21:00 10° SSW 20:26:39 72° WNW 20:32:20 10° NNE
Resurs 1-3 3.8 20:25:41 10° S 20:30:03 77° WSW 20:34:29 10° NNW
USA 186 1.5 20:27:16 10° SSE 20:30:06 76° ENE 20:33:09 10° N
Lacrosse 4 Rocket 2.9 20:26:04 10° NW 20:30:07 38° WSW 20:34:12 10° S
Intercosmos 25 Rocket 3.2 20:26:54 10° S 20:30:11 79° E 20:34:44 10° N
Helios 1B rocket 2.7 20:28:33 10° NNE 20:32:30 44° E 20:36:25 10° S
Cosmos 1992 Rocket 4.1 20:28:55 10° SSW 20:34:09 85° WNW 20:39:26 10° NNE
CZ-2D R/B 3.8 20:33:19 10° S 20:37:10 63° W 20:41:02 10° NNW
YAOGAN 6 4.0 20:34:54 11° ESE 20:37:30 22° ENE 20:40:19 10° NNE
Cosmos 1844 Rocket 3.9 20:37:28 10° N 20:42:08 26° NE 20:46:15 12° ESE
USA 267 3.5 20:38:38 10° NE 20:45:11 75° NW 20:51:42 10° WSW
Cosmos 2278 Rocket 4.2 20:42:41 10° NNE 20:45:34 14° NE 20:48:27 10° ENE
Cosmos 2333 Rocket 3.8 20:46:22 13° ESE 20:47:45 14° E 20:50:32 10° ENE
Cosmos 1655 Rocket 4.2 20:43:27 10° N 20:49:52 81° W 20:56:11 10° S
Meteor 2-10 Rocket 3.8 20:44:56 10° S 20:50:39 61° E 20:56:20 10° NNE
Cosmos 2221 Rocket 4.4 20:53:09 12° SSE 20:56:35 32° E 21:00:33 10° NNE
Cosmos 2279 Rocket 4.3 20:53:27 10° SSW 20:59:40 73° W 21:05:55 10° N
SJ-11-01 4.2 20:55:47 10° SSE 21:00:27 80° ENE 21:05:08 10° N
BREEZE-M DEB (TANK) 4.1 20:58:50 10° WNW 21:02:11 57° N 21:11:54 10° E
Abrixas rocket 4.1 20:59:24 10° NW 21:02:14 26° N 21:05:05 10° ENE
CZ-4B DEB 2.6 21:00:35 13° S 21:03:13 80° W 21:06:15 10° NNW
Cosmos 1933 4.0 21:00:06 10° SSW 21:04:04 58° W 21:08:03 10° N
Cosmos 2219 Rocket 3.2 21:01:52 16° SE 21:04:55 24° ESE 21:09:19 10° NE
Cosmos 968 Rocket 3.5 20:59:54 10° NNW 21:05:08 89° WSW 21:09:47 13° SSE
Resurs 01 Rocket 3.9 21:10:14 10° SSW 21:13:45 23° W 21:17:18 10° NW
Cosmos 1908 Rocket 3.6 21:12:52 10° N 21:17:14 82° W 21:20:54 14° S
USA 234 3.4 21:14:54 20° ESE 21:19:41 72° NE 21:26:12 10° NW
Meteor 1-29 3.9 21:19:54 10° N 21:23:16 48° WNW 21:26:35 10° SSW
Cosmos 2263 Rocket 3.7 21:20:07 10° NW 21:25:01 32° WSW 21:29:55 10° SSW
Cosmos 1782 3.5 21:24:25 31° ESE 21:25:11 34° E 21:28:50 10° NNE
Envisat 3.7 21:20:55 10° S 21:25:51 51° W 21:30:49 10° NNW
Meteor 1-26 Rocket 4.4 21:21:37 10° SSW 21:27:19 79° W 21:33:10 10° N
Sich 1 Rocket 4.0 21:24:02 10° NNW 21:28:29 62° W 21:32:21 14° S
Cosmos 1782 Rocket 3.5 21:27:36 10° N 21:32:01 84° E 21:34:23 27° S
SL-08 RB Rocket 4.5 21:33:13 30° ESE 21:34:30 35° ENE 21:38:39 10° N
Okean 1-7 2.9 21:33:16 19° S 21:36:22 80° E 21:40:47 10° N
Cosmos 1346 Rocket 4.5 21:39:07 19° ENE 21:39:07 19° ENE 21:41:07 10° NE
H-2A R/B 2.9 21:37:56 27° E 21:39:17 32° ENE 21:43:37 10° N
CZ-4C R/B 3.6 21:33:29 10° NNW 21:40:07 42° NE 21:44:27 23° ESE
MetOp-B 4.1 21:38:15 30° SSE 21:40:58 72° ENE 21:46:19 10° N
Cosmos 1939 Rocket 4.3 21:38:03 11° SSW 21:41:33 34° W 21:45:12 10° NNW
Cosmos 2237 4.4 21:36:45 10° SSW 21:42:28 73° WNW 21:48:12 10° NNE
SeaSat 1 3.3 21:41:46 28° E 21:43:29 37° NE 21:48:02 10° N
ERS-1 Rocket 3.1 21:42:00 23° S 21:45:06 72° WSW 21:50:09 10° NNW
Cosmos 2084 4.1 21:41:39 10° NNW 21:45:16 37° NE 21:46:00 33° ENE
USA 245 4.1 21:43:26 34° SE 21:45:37 60° ENE 21:50:12 10° N
Cosmos 2360 Rocket 3.5 21:40:55 10° SW 21:46:14 41° WNW 21:51:37 10° NNE
Cosmos 1570 Rocket 4.1 21:47:23 33° SSE 21:49:23 52° ESE 21:54:31 10° NNE
SPOT 5 2.8 21:48:34 41° SE 21:50:05 67° ENE 21:54:37 10° N
Okean 2 Rocket 3.0 21:45:33 10° N 21:50:07 87° WSW 21:51:48 38° S
TRAILBLAZER 4.4 21:47:21 10° SSW 21:51:52 74° ESE 21:56:26 10° NE
COSMOS 2428 2.8 21:46:20 10° SSW 21:52:01 80° WNW 21:57:46 10° NNE
ATLAS 5 CENTAUR R/B 3.9 21:49:34 10° NW 21:54:51 30° WSW 21:59:24 14° SSW
S3M 4.5 21:53:34 35° ESE 21:55:00 39° E 22:00:42 10° NNE
Nimbus 7 Rocket 4.5 21:50:47 10° NNE 21:56:39 58° ESE 21:59:10 34° SSE
Atlas Centaur 2 3.6 21:51:27 10° WSW 21:57:20 31° S 21:58:45 29° SSE
Cosmos 1980 4.0 21:58:04 41° ESE 21:58:40 42° ESE 22:03:58 10° NE
NOAA 11 4.2 21:56:06 31° S 21:58:50 78° WSW 22:04:21 10° NNW
Cosmos 1844 3.6 21:55:35 10° NNW 22:01:17 82° ENE 22:03:06 45° SSE
Cosmos 2208 Rocket 4.0 21:59:30 39° SSE 22:01:19 62° ESE 22:06:35 10° NNE
ARGOS 3.0 22:00:07 41° SSE 22:02:06 84° ENE 22:07:31 10° NNW
Cosmos 1606 2.5 22:02:44 81° ESE 22:02:46 81° E 22:06:34 10° N
NOSS 3-1 (C) 3.2 21:57:28 10° SSW 22:03:12 78° ESE 22:09:38 10° NE
Meteor 1-10 Rocket 4.2 22:00:10 28° S 22:03:27 80° E 22:09:20 10° NNE
SL-16 R/B 4.0 22:07:51 15° ENE 22:07:51 15° ENE 22:09:29 10° ENE
Meteor 1-11 Rocket 3.9 22:02:26 10° N 22:07:49 50° ENE 22:08:49 45° ESE
Iridium 4 Rocket 4.4 22:04:24 10° NNE 22:07:08 26° ENE 22:07:08 26° ENE
ASTEX 1 3.9 22:08:04 41° E 22:08:24 41° ENE 22:13:04 10° N
MOS 1-B Rocket 3.8 22:06:17 39° SSE 22:08:36 90° W 22:14:13 10° NNW
Milstar 3 4.5 22:04:55 10° WSW 22:08:38 15° SSW 22:09:38 14° SSW
Landsat 7 4.1 22:12:37 49° E 22:12:59 51° ENE 22:17:36 10° N
CARTOSAT-1 4.4 22:19:48 38° ENE 22:19:48 38° ENE 22:23:26 10° N
Cosmos 1898 Rocket 4.0 22:15:03 10° N 22:20:00 44° ENE 22:20:27 43° E
NOSS 3-1 (A) 3.2 22:16:00 18° SSW 22:20:27 77° ESE 22:26:55 10° NE
ATLAS 2AS CENTAUR R/B 4.3 22:23:55 22° E 22:23:55 22° E 22:28:04 10° ENE
Cosmos 2151 Rocket 3.5 22:20:16 10° N 22:24:43 77° W 22:25:01 73° SW
Cosmos 2237 Rocket 2.1 22:24:38 59° SSE 22:25:23 66° ESE 22:31:03 10° NNE
Cosmos 1417 Rocket 4.4 22:22:51 39° S 22:25:25 89° E 22:31:49 10° N
Cosmos 1844 Rocket 3.3 22:20:55 10° NW 22:26:14 48° WSW 22:27:55 36° SSW
Cosmos 1745 Rocket 4.1 22:20:49 10° N 22:27:08 64° E 22:28:24 53° SE
SPOT 1/Viking Rocket 3.5 22:26:06 57° S 22:27:10 78° WSW 22:32:24 10° NNW
Terra 2.2 22:28:13 50° ENE 22:28:13 50° ENE 22:32:43 10° N
Cosmos 2278 Rocket 2.1 22:24:57 10° NNW 22:30:39 77° ENE 22:31:26 65° SE
Cosmos 1536 4.0 22:26:55 10° N 22:29:40 34° NE 22:29:40 34° NE
Cosmos 2333 Rocket 2.2 22:28:14 30° SSW 22:31:12 83° WNW 22:37:01 10° NNE
NOSS 0 Rocket 3.8 22:30:34 34° SSW 22:33:25 88° ESE 22:39:37 10° NNE
Cosmos 1674 Rocket 3.8 22:36:42 62° NNE 22:36:42 62° NNE 22:40:21 10° N
Okean 1 Rocket 3.7 22:32:22 10° N 22:35:57 46° NE 22:35:57 46° NE
Abrixas rocket 4.3 22:36:10 10° WNW 22:37:53 27° NW 22:37:53 27° NW
SL-19 R/B 4.3 22:35:45 10° NNE 22:41:42 64° ESE 22:41:52 64° ESE
ATLAS 3B R/B 4.1 22:40:26 10° NNW 22:46:11 27° NE 22:49:10 20° ENE
H-2A R/B 2.4 22:47:46 63° NNW 22:47:46 63° NNW 22:51:28 10° NNW
Cosmos 2219 Rocket 3.0 22:43:24 11° SW 22:48:30 48° WNW 22:53:58 10° NNE
Cosmos 1633 4.1 22:45:26 10° NNW 22:48:06 34° WNW 22:48:06 34° WNW
Gbstr 26 Del rocket 4.4 22:42:49 10° SW 22:50:37 81° SE 22:58:47 10° ENE
Cosmos 468 Rocket 4.1 22:52:00 69° NE 22:52:00 69° NE 22:56:47 10° NNE
Meteor 1-5 Rocket 4.2 22:52:19 10° N 22:58:03 74° E 22:58:05 74° E
CZ-4B R/B 4.2 22:54:06 10° NNE 22:57:20 40° NE 22:57:20 40° NE
USA 234 4.1 23:02:14 32° SW 23:02:59 33° SW 23:08:47 10° WNW
Geosat 4.5 22:58:51 10° NNE 23:02:40 52° NE 23:02:40 52° NE
CZ-4 R/B 4.4 22:59:37 10° NNE 23:03:22 54° NNE 23:03:22 54° NNE
H-2A R/B 3.3 23:18:33 29° W 23:18:40 29° W 23:22:59 10° NW
Cosmos 2315 Rocket 4.0 23:19:17 67° ENE 23:19:17 67° ENE 23:25:05 10° NNE
SeaSat 1 3.8 23:21:33 30° W 23:21:33 30° W 23:25:22 10° NW
Cosmos 2369 Rocket 4.1 23:20:35 10° N 23:24:30 19° NE 23:25:24 18° ENE
Cosmos 2297 3.8 23:22:22 10° NNW 23:27:27 70° NW 23:27:27 70° NW
CZ-4C R/B 3.2 23:21:57 10° NW 23:28:57 52° WSW 23:29:38 50° SW
Cosmos 1937 Rocket 4.2 23:30:19 10° NNW 23:34:27 47° WNW 23:34:27 47° WNW
ATLAS CENTAUR R/B 3.6 23:45:52 23° N 23:45:52 23° N 23:47:34 10° NNE
Cosmos 1709 Rocket 4.1 23:40:45 10° NNW 23:46:56 67° W 23:46:56 67° W
Cosmos 2184 Rocket 4.4 23:42:12 10° N 23:47:56 53° ENE 23:47:56 53° ENE
SL-16 R/B 2.6 23:49:41 60° NW 23:49:41 60° NW 23:54:52 10° NNE
